Regional Weather Roundup
Issued by NWS

Home | Current Version | Previous Version | Graphics & Text | Print | Product List | Glossary On
Versions: 1 2 3 4 5 6 7 8 9 10 11 12 13 14 15 16 17 18 19 20 21 22 23 24 25 26 27 28 29 30 31 32 33 34 35 36 37 38 39 40 41 42 43 44 45 46 47 48 49 50
742
ASUS43 KMPX 050410
RWRMN
WEATHER ROUNDUP FOR MINNESOTA
NATIONAL WEATHER SERVICE TWIN CITIES/CHANHASSEN MN
1000 PM CST SUN DEC 04 2016


NOTE: "FAIR" INDICATES FEW OR NO CLOUDS BELOW 12,000 FEET WITH NO
SIGNIFICANT WEATHER AND/OR OBSTRUCTIONS TO VISIBILITY. N/A MEANS
CURRENT SKY AND/OR WEATHER CONDITIONS ARE NOT AVAILABLE.

MNZ060>063-068>070-050500-
   Twin Cities Metro

CITY           SKY/WX    TMP DP  RH WIND       PRES   REMARKS
TWIN CITIES    CLOUDY    36  28  73 W7        29.77R
ST PAUL        CLOUDY    37  31  78 W10       29.78R
CRYSTAL        PTCLDY    35  28  75 SW7       29.75S WCI  29
BLAINE         PTCLDY    36  34  93 SW6       29.75S
LAKEVILLE      PTCLDY    30  30 100 SW3       29.78S
EDEN PRAIRIE   PTCLDY    34  29  82 SW7       29.77R WCI  28
SOUTH ST PAUL  MOCLDY    37  30  77 W7        29.77S
LAKE ELMO      CLOUDY    36  32  87 W7        29.77R
$$
MNZ001>005-007-008-013>017-022>024-027-028-050500-
   Northwest Minnesota

CITY           SKY/WX    TMP DP  RH WIND       PRES   REMARKS
BEMIDJI        CLOUDY    30  27  90 W14G20    29.63R WCI  19
HALLOCK        CLOUDY    30  28  93 W12       29.63R WCI  21
ROSEAU         LGT SNOW  30  27  86 SW9       29.60R WCI  22
WARROAD        FLURRIES  30  27  86 SW8       29.59S WCI  23
CROOKSTON      CLOUDY    28  27  93 W10       29.68S WCI  19
FOSSTON        CLOUDY    27  25  93 W10       29.66S WCI  17
DETROIT LAKES  CLOUDY    32  30  93 CALM      29.68S
MOORHEAD       PTCLDY    30  28  93 W7        29.70S WCI  23
PARK RAPIDS    CLOUDY    31  25  78 W10       29.65S WCI  22
$$
MNZ006-009>011-018-025>026-050500-
   North Central Minnesota

CITY           SKY/WX    TMP DP  RH WIND       PRES   REMARKS
BAUDETTE       LGT SNOW  29  27  92 SW5       29.59S FOG     WCI  24
FLAG ISLAND    MIX PCPN  30  28  93 SW6       29.57S WCI  24
INTL FALLS     CLOUDY    31  29  92 SW5       29.59S WCI  26
WASKISH        LGT SNOW  30  28  93 W10       29.62R WCI  21
BIG FORK       CLOUDY    30  28  93 W5        29.61R WCI  25
LONGVILLE      CLOUDY    30  28  93 W10       29.64R WCI  21
GRAND RAPIDS   MIX PCPN  31  28  89 W8        29.65R WCI  23
CRANE LAKE     LGT SNOW  28  28 100 CALM      29.62S
ORR            MIX PCPN  30  27  86 CALM      29.57S
COOK           LGT SNOW  30  28  93 CALM      29.60S
$$
MNZ012-019>021-037-050500-
   Northeast Minnesota

CITY           SKY/WX    TMP DP  RH WIND       PRES   REMARKS
DULUTH         DRIZZLE   33  32  96 W12       29.62S WCI  24
ELY            CLOUDY    30  28  93 CALM      29.60S
HIBBING        CLOUDY    30  28  92 W7        29.61R WCI  23
EVELETH        MIX PCPN  32  32  99 SW6       29.61S WCI  27
DULUTH HARBOR  CLOUDY    36  34  93 SW9       29.66S
TWO HARBORS    CLOUDY    36  30  80 SW3       29.61S HAZE
SILVER BAY     CLOUDY    34  34 100 CALM      29.61S FOG
GRAND MARAIS     N/A     33  33 100 CALM      29.65F
G MARAIS ARPRT CLOUDY    28  25  86 CALM      29.60F
$$
MNZ029>031-032-039>041-046>048-054>057-064-050500-
   West Central Minnesota

CITY           SKY/WX    TMP DP  RH WIND       PRES   REMARKS
FERGUS FALLS   CLEAR     28  28 100 W6        29.74S WCI  22
WHEATON        CLEAR    N/A N/A N/A SW5       29.73S
MORRIS         CLEAR     28  28 100 SW3       29.71F
ALEXANDRIA     CLEAR     31  30  96 SW10      29.71S WCI  22
ELBOW LAKE     FAIR      28  28  99 CALM      29.71F
WADENA         CLOUDY    30  28  93 W7        29.67S WCI  23
GLENWOOD       CLEAR     30  28  93 SW10      29.72S WCI  21
APPLETON       CLEAR     30  27  86 SW5       29.74S WCI  25
BENSON         CLEAR     30  27  86 SW7       29.74S WCI  23
ORTONVILLE     CLEAR     30  27  86 CALM      29.72F
MADISON        CLEAR     34  30  86 SW7       29.74S WCI  28
WILLMAR        FAIR      32  30  93 SW6       29.76S WCI  26
$$
MNZ033>034-036-042>043-049>051-058-059-050500-
   Central Minnesota

CITY           SKY/WX    TMP DP  RH WIND       PRES   REMARKS
ST CLOUD       CLOUDY    33  31  92 SW9       29.73R WCI  25
PAYNESVILLE    CLOUDY    33  33 100 SW9       29.74S WCI  25
AITKIN         CLOUDY    36  27  69 W7        29.65S
PINE RIVER     CLOUDY    30  28  93 W6        29.70R WCI  24
BRAINERD       CLOUDY    32  29  88 W9        29.68R WCI  24
STAPLES        CLOUDY    30  28  93 SW3       29.68S
LONG PRAIRIE   MOCLDY    32  30  93 S8        29.70S WCI  25
LITTLE FALLS   CLOUDY    34  30  86 SW5       29.71S WCI  30
LITCHFIELD     CLEAR     34  30  86 CALM      29.76S
BUFFALO        CLEAR     33  29  86 SW6       29.76S WCI  27
MAPLE LAKE     CLEAR     33  32  94 SW7       29.75S WCI  27
$$
MNZ037-044-045-052-053-050500-
   East Central Minnesota

CITY           SKY/WX    TMP DP  RH WIND       PRES   REMARKS
PRINCETON      CLOUDY    34  32  93 SW5       29.73R WCI  30
MORA           CLOUDY    34  30  86 SW5       29.72R WCI  30
CAMBRIDGE      CLOUDY    36  30  80 SW6       29.71S
RUSH CITY      CLOUDY    34  30  86 SW6       29.72S WCI  29
MOOSE LAKE     CLOUDY    32  28  86 W7        29.65S WCI  26
HINCKLEY       CLOUDY    34  32  93 SW8       29.69S WCI  27
CLOQUET        FLURRIES  34  30  86 W12       29.64R WCI  25
MCGREGOR       CLOUDY    32  30  93 W7        29.66S WCI  26
$$
MNZ071>073-080-081-089-090-097-098-050500-
   Southwest Minnesota

CITY           SKY/WX    TMP DP  RH WIND       PRES   REMARKS
MONTEVIDEO     CLEAR     28  27  93 W3        29.76S
GRANITE FALLS  CLEAR     30  28  93 S7        29.77S WCI  23
CANBY          CLEAR     36  31  83 SW10      29.75S
MARSHALL       CLEAR     34  30  85 SW14      29.76S WCI  25
REDWOOD FALLS  CLEAR     30  27  88 S8        29.77S WCI  22
OLIVIA         CLEAR     30  28  93 S6        29.76S WCI  24
PIPESTONE      CLEAR     32  30  93 S5        29.76F WCI  27
WINDOM           N/A     34  30  86 CALM      29.79S
WORTHINGTON    CLEAR     33  29  85 SW8       29.80R WCI  26
JACKSON        PTCLDY    32  28  86 SW6       29.81S WCI  26
TRACY          CLEAR     35  32  89 SW10      29.77S WCI  27
SLAYTON        CLEAR     32  29  90 SW6       29.79R WCI  26
$$
MNZ065>067-074>077-082>085-091>093-050500-
   South Central Minnesota

CITY           SKY/WX    TMP DP  RH WIND       PRES   REMARKS
MANKATO        CLEAR     33  31  92 SW5       29.80S WCI  29
NEW ULM        CLEAR     30  28  93 S5        29.79R WCI  25
ST JAMES       CLEAR     32  30  93 S5        29.81R WCI  27
FAIRMONT       CLEAR     32  30  92 SW7       29.82R WCI  26
GLENCOE        CLEAR     33  32  98 S5        29.77S WCI  28
FARIBAULT      PTCLDY    34  30  86 S5        29.80R WCI  30
OWATONNA       CLEAR     32  30  93 S7        29.80S WCI  26
WASECA         CLEAR     32  32 100 SW6       29.81S WCI  26
ALBERT LEA     PTCLDY    37  36  93 SW8       29.82R FOG
$$
MNZ078>079-086>088-094>096-050500-
   Southeast Minnesota

CITY           SKY/WX    TMP DP  RH WIND       PRES   REMARKS
ROCHESTER      CLOUDY    34  33  96 SW17      29.81R FOG     WCI  23
RED WING       CLOUDY    36  34  93 W3        29.77S
STANTON        MOCLDY    33  31  93 SW3       29.78S
DODGE CENTER   MOCLDY    34  32  93 SW12      29.79S WCI  25
WINONA         CLOUDY    36  32  87 SW8       29.82R
PRESTON        CLOUDY    33  32  96 SW14      29.82R FOG     WCI  23
$$
ABBREVIATIONS USED IN REMARKS
   TC - TEMPERATURES IN CELSIUS
  WCI - WIND CHILL INDEX
   HX - HEAT INDEX
  VSB - VISIBILITY
$$




USA.gov is the U.S. government's official web portal to all federal, state and local government web resources and services.